Miscellaneous Local Product
Issued by NWS Hastings, NE

Home | Current Version | Previous Version | Graphics & Text | Print | Product List | Glossary On
Versions: 1 2 3 4 5 6 7 8 9 10 11 12 13 14 15 16 17 18 19 20 21 22 23 24 25 26 27 28 29 30 31 32 33 34 35 36 37 38 39 40 41 42 43 44 45 46 47 48 49 50
189
AXUS43 KGID 271402
MISGRI

GID CWA HOURLY WEATHER ROUNDUP
NATIONAL WEATHER SERVICE HASTINGS NE
900 AM CDT WED JUL 27 2016

NOTE: "FAIR" INDICATES FEW OR NO CLOUDS BELOW 12,000 FEET WITH NO
SIGNIFICANT WEATHER AND/OR OBSTRUCTIONS TO VISIBILITY.

...SOUTH CENTRAL NEBRASKA...

CITY           SKY/WX    TMP DP  RH WIND       PRES   REMARKS
GRAND ISLAND   SUNNY     70  62  76 NE16      30.07R
HASTINGS       CLOUDY    68  62  81 W12       30.05R
KEARNEY        SUNNY     70  12  11 W6        30.05S
ORD            MOSUNNY   67  60  78 N8        30.07R
YORK           MOSUNNY   70  63  78 N14G21    30.06R
AURORA         MOSUNNY   70  63  78 N12       30.06R
LEXINGTON      SUNNY     66  62  85 W6        30.07R
HOLDREGE       SUNNY     67  62  84 CALM      30.07R
HEBRON         MOSUNNY   75  67  77 W7        30.03R

...NEBRASKA PANHANDLE...

CITY           SKY/WX    TMP DP  RH WIND       PRES   REMARKS
CHADRON        RAIN      64  58  80 NW13      30.19F
ALLIANCE       LGT RAIN  63  61  93 W16       30.22R
SCOTTSBLUFF    CLOUDY    65  60  84 E8        30.22R
SIDNEY         CLOUDY    64  57  78 NW3       30.23R

...WESTERN AND NORTH CENTRAL NEBRASKA...

CITY           SKY/WX    TMP DP  RH WIND       PRES   REMARKS
VALENTINE      MOSUNNY   70  60  70 MISG      30.07R
AINSWORTH      PTSUNNY   67  62  84 N6        30.08R
ONEILL         MOSUNNY   70  61  72 NW8       30.09R
BROKEN BOW     SUNNY     68  62  81 W5        30.07R
IMPERIAL       SUNNY     65  58  78 NW3       30.13S
NORTH PLATTE   MOSUNNY   67  61  81 NW5       30.08R
MCCOOK         SUNNY     68  60  75 W5        30.07F

...EASTERN NEBRASKA...

CITY           SKY/WX    TMP DP  RH WIND       PRES   REMARKS
NORFOLK        SUNNY     73  66  78 NW10      30.03R
SO SIOUX CITY  CLOUDY    73  67  81 E5        30.00R
TEKAMAH        CLOUDY    72  68  87 S5        29.99R
COLUMBUS       SUNNY     72  61  68 W10       30.04R
ALBION         SUNNY     68  65  90 N10       30.07R
OMAHA EPPLEY   PTSUNNY   76  67  73 S7        29.99R
OFFUTT AFB     CLOUDY    76  70  82 SW5       30.00R
MILLARD        MOSUNNY   76  68  78 W5        30.01R
LINCOLN        MOSUNNY   76  67  73 NW9       30.03R
NEBRASKA CITY  SUNNY     75  70  85 S6        29.99R
BEATRICE       SUNNY     76  68  75 SW7       30.01R
FALLS CITY     SUNNY     76  69  79 S6        29.96R

...NORTHERN KANSAS...

CITY           SKY/WX    TMP DP  RH WIND       PRES   REMARKS
GOODLAND       SUNNY     68  62  81 S8        30.12R
HILL CITY      CLOUDY    73  62  68 NW3       30.03S
NORTON         SUNNY     70  55  60 NW5       30.06S
SMITH CENTER   SUNNY     68  63  83 N9        30.05R
BELOIT         SUNNY     75  68  78 CALM      30.00R
HAYS           CLOUDY    73  59  60 S6        30.00S
RUSSELL        CLOUDY    75  70  84 CALM      29.98R
CONCORDIA      CLOUDY    75  68  78 W5        30.01R
SALINA         CLOUDY    76  70  82 S7        29.98R
TOPEKA         MOSUNNY   78  70  76 E5        29.97R



USA.gov is the U.S. government's official web portal to all federal, state and local government web resources and services.